Regional Weather Roundup
Issued by NWS Bismarck, ND

Home | Current Version | Previous Version | Text Only | Print | Product List | Glossary On
Versions: 1 2 3 4 5 6 7 8 9 10 11 12 13 14 15 16 17 18 19 20 21 22 23 24 25 26 27 28 29 30 31 32 33 34 35 36 37 38 39 40 41 42 43 44 45 46 47 48 49 50
000
ASUS43 KBIS 291910
RWRBIS

NWR BROADCAST TEXT
NATIONAL WEATHER SERVICE BISMARCK ND
200 PM CDT SUN MAY 29 2016

NOTE: "FAIR" INDICATES FEW OR NO CLOUDS BELOW 12,000 FEET WITH NO
SIGNIFICANT WEATHER AND/OR OBSTRUCTIONS TO VISIBILITY.


CITY           SKY/WX    TMP DP  RH WIND       PRES   REMARKS
WILLISTON      SUNNY     75  34  22 SW10G20   29.98F
MINOT          MOSUNNY   76  38  25 W12       29.96F
MINOT AFB      NOT AVBL
BISMARCK       SUNNY     76  42  29 NW9       30.01F
DICKINSON      MOSUNNY   73  39  29 W9        29.99F
GARRISON         N/A     72  39  30 W15G24    29.99F
HETTINGER ARPT MOSUNNY   74  43  32 SW7       30.03F
JAMESTOWN      PTSUNNY   72  46  39 NW17      29.98S
CARRINGTON     FAIR      73  39  29 NW13G23   29.99F
HAZEN          FAIR      72  39  30 NW13      30.02S
MANDAN         FAIR      73  45  35 W13G20    30.02F
OAKES            N/A    N/A N/A N/A MISG        N/A
RUGBY          FAIR      72  39  30 W14       29.96S
STANLEY        FAIR      70  41  35 W10G20    30.00F
WATFORD CITY   FAIR      72  36  26 W18       29.99F
$$

CITY           SKY/WX    TMP DP  RH WIND       PRES   REMARKS
GRAND FORKS    MOSUNNY   72  55  55 NW14      29.92F
GRAND FORKS AF NOT AVBL
DEVILS LAKE    SUNNY     72  41  32 NW21G29   29.96S
FARGO          MOSUNNY   73  57  57 NW9       29.95S
CAVALIER       FAIR      68  57  68 NW9       29.92F
GRAFTON        FAIR      70  59  68 NW9       29.94F
GWINNER        FAIR      75  46  35 NW16      29.99S
LANGDON        FAIR      72  54  53 NW12G20   29.94F
ROLLA            N/A     70  41  35 W21G30    29.95F
WALHALLA       FAIR      68  64  88 NW10      29.93S
$$

CITY           SKY/WX    TMP DP  RH WIND       PRES   REMARKS
ABERDEEN       SUNNY     79  44  28 NW14G23   30.01F
MOBRIDGE       SUNNY     75  50  41 VRB6      30.01F
BUFFALO          N/A     74  44  34 S9        29.97F
RAPID CITY     SUNNY     72  50  45 S9        30.06F
GLASGOW        SUNNY     71  38  29 W12       29.97F
SIDNEY         SUNNY     73  37  27 W7        29.97F
WOLF POINT     SUNNY     74  38  27 SW10      29.97F
GLENDIVE       MOSUNNY   73  43  33 W10       30.02F
MILES CITY     SUNNY     75  38  26 W9        30.00F
BAKER          MOSUNNY   75  38  26 W15G22    30.02F
$$

CITY           SKY/WX    TMP DP  RH WIND       PRES   REMARKS
BILLINGS       MOSUNNY   71  43  36 SW8       30.03F
GREAT FALLS    SUNNY     70  35  27 SW14G24   29.98F
REGINA         MOSUNNY   68  39  34 W17G25    29.91F
ESTEVAN        MOSUNNY   70  41  35 SW12G22   29.95S
$$





USA.gov is the U.S. government's official web portal to all federal, state and local government web resources and services.